Hourly Weather Roundup
Issued by NWS Central Illinois

Home | Current Version | Previous Version | Text Only | Print | Product List | Glossary On
Versions: 1 2 3 4 5 6 7 8 9 10 11 12 13 14 15 16 17 18 19 20 21 22 23 24 25 26 27 28 29 30 31 32 33 34 35 36 37 38 39 40 41 42 43 44 45 46 47 48 49 50
000
NZUS43 KILX 032010
HWRILX

AREA WEATHER ROUNDUP
NATIONAL WEATHER SERVICE, LINCOLN IL
300 PM CDT THU SEP 03 2015


CITY           SKY/WX    TMP DP  RH WIND       PRES   REMARKS
BLOOMINGTON    MOSUNNY   94  69  43 W8        29.95F HX  99
CHAMPAIGN      MOSUNNY   91  65  41 SW6       29.95F HX  93
DANVILLE       MOSUNNY   90  68  49 SW8       29.93F HX  94
DECATUR        SUNNY     94  64  37 W12       29.94F HX  95
EFFINGHAM      SUNNY     90  61  37 CALM      29.98S HX  90
FLORA          MOSUNNY   92  65  41 W6        29.97S HX  94
GALESBURG      SUNNY     91  68  46 SW8       29.93F HX  94
JACKSONVILLE   MOSUNNY   94  67  40 SW9       29.93F HX  98
LACON          MOSUNNY   90  67  47 SW7       29.91F HX  93
LAWRENCEVILLE  MOSUNNY   92  65  40 SW8       29.96F HX  94
LITCHFIELD     SUNNY     91  65  42 SW10      29.96F HX  93
$$


CITY           SKY/WX    TMP DP  RH WIND       PRES   REMARKS
LINCOLN        MOSUNNY   96  63  33 SW3       29.91F HX  97
MACOMB         MOSUNNY   92  66  42 SW6       29.95F HX  94
MATTOON        MOSUNNY   92  63  38 SW10      29.95F HX  93
MT CARMEL AP   MOSUNNY   91  59  33 CALM      29.96F HX  90
OLNEY-NOBLE AP PTSUNNY   90  68  48 S5        29.96F HX  93
PARIS          MOSUNNY   92  66  42 SW8       29.97S HX  94
PEORIA         SUNNY     94  66  39 W10       29.92F HX  97
PONTIAC        SUNNY     91  70  50 W13       29.94F HX  96
RANTOUL        NOT AVBL
ROBINSON       MOSUNNY   91  66  42 SW5       29.96F HX  94
SPRINGFIELD    MOSUNNY   93  69  45 S8        29.94F HX  98
TAYLORVILLE    PTSUNNY   90  68  48 SW5       29.95S HX  93
$$

...REGIONAL REPORTS...


CITY           SKY/WX    TMP DP  RH WIND       PRES   REMARKS
CHICAGO O`HARE MOSUNNY   89  68  49 SW13G21   29.90F HX  93
KANKAKEE       MOSUNNY   90  71  53 SW8       29.93F HX  97
MOLINE         MOSUNNY   92  70  48 W9        29.90F HX  97
MOUNT STERLING SUNNY     90  66  45 SW6       29.93F HX  92
MOUNT VERNON   MOSUNNY   91  68  46 S5        29.97F HX  95
PITTSFIELD     SUNNY     93  62  35 SW8       29.95F HX  94
QUINCY         SUNNY     92  65  40 MISG      29.93F HX  94
ROCKFORD       MOSUNNY   88  72  58 SW8       29.92F HX  94
$$


CITY           SKY/WX    TMP DP  RH WIND       PRES   REMARKS
BURLINGTON     SUNNY     91  70  49 SW8       29.92F HX  96
CEDAR RAPIDS   MOSUNNY   88  75  65 S8        29.90F HX  97
DES MOINES     MOSUNNY   90  71  53 S12       29.87F HX  96
KIRKSVILLE     SUNNY     91  66  43 S13       29.94F HX  93
OTTUMWA        SUNNY     90  73  57 SW9       29.88F HX  98
ST LOUIS       MOSUNNY   93  66  40 W9        29.96F HX  96
$$


CITY           SKY/WX    TMP DP  RH WIND       PRES   REMARKS
TERRE HAUTE    MOSUNNY   90  66  45 SW8       29.96F HX  92
EVANSVILLE     MOSUNNY   91  65  41 VRB3      29.97F HX  93
INDIANAPOLIS   MOSUNNY   88  64  44 SW8       29.96F HX  89
LAFAYETTE      MOSUNNY   89  65  44 W10G17    29.94F HX  91
MADISON        PTSUNNY   85  73  67 N9        29.90F HX  91
MILWAUKEE      PTSUNNY   78  70  76 NE10      29.91S HX  80
$$





USA.gov is the U.S. government's official web portal to all federal, state and local government web resources and services.